Location: Boiro
(42.6475°N, 8.8834°W)
Time: 11:32:09
(UTC+01:00)

Transit 4A - Pass Details

Date: 07 December 2021
Orbit: 863 x 981 km, 66.8° (Epoch: 25 January)

Event Time Altitude Azimuth Distance (km) Brightness Sun altitude
Exits shadow 04:51:43 12° 135° (SE) 2,561 10.5 -43.3°
Drops below altitude 10° 04:52:10 10° 136° (SE) 2,721 10.6 -43.2°
Sets 04:54:46 0° 140° (SE) 3,670 11.3 -42.8°
